Regional Weather Roundup
Issued by NWS Goodland, KS

Home | Current Version | Previous Version | Graphics & Text | Print | Product List | Glossary On
Versions: 1 2 3 4 5 6 7 8 9 10 11 12 13 14 15 16 17 18 19 20 21 22 23 24 25 26 27 28 29 30 31 32 33 34 35 36 37 38 39 40 41 42 43 44 45 46 47 48 49 50
999
ASUS43 KGLD 111108
RWRGLD

GOODLAND FORECAST AREA HOURLY WEATHER ROUNDUP
NATIONAL WEATHER SERVICE GOODLAND KS
400 AM MST THU FEB 11 2016

...OFFICIAL OBSERVATIONS...

CITY           SKY/WX    TMP DP  RH WIND       PRES   REMARKS
GOODLAND KS    CLOUDY    26  21  81 SW7       30.15F
HILL CITY KS   CLOUDY    24  22  91 NW5       30.19R
IMPERIAL NEB   CLOUDY    27  23  85 CALM      30.13F
MCCOOK NEB     CLOUDY    27  24  89 S3        30.16S
AKRON CO       CLOUDY    33  21  61 SW14      30.13F
BURLINGTON CO  CLOUDY    30  21  69 W12       30.15F
LIMON CO       CLOUDY    16  12  84 N6        30.18F
$$

...UNOFFICIAL OBSERVATIONS...

CITY           SKY/WX    TMP DP  RH WIND       PRES   REMARKS
GOVE KS          N/A     27  32 100 MISG        N/A
LENORA KS        N/A     27  32 100 MISG        N/A
NORTON KS      CLOUDY    28  25  86 N6        30.17S
SHARON SPRINGS   N/A     31  25  77 CALM        N/A
KIT CARSON CO    N/A     31  22  70 MISG        N/A
YUMA CO          N/A     30  23  75 CALM        N/A
$$




USA.gov is the U.S. government's official web portal to all federal, state and local government web resources and services.